Overview Statistics Trail Chart Weather Telemetry Raw packets
 

This is the latest recevied weather packets stored in our database for station/object K7SKM. If no packets are shown the sender has not sent any weather packets the latest 10 day(s).

<< 18 19 20 21 22 23 24 >>
Time Temp. Humidity Pressure Rain* Wind** Luminosity Snow
1788550780 20° C 55% 1018.2 hPa 0 mm - 446 W/m² -
1788550475 21.11° C 54% 1018.1 hPa 0 mm - 430 W/m² -
1788550171 20° C 58% 1018 hPa 0 mm - 415 W/m² -
1788549866 20° C 58% 1018.2 hPa 0 mm - 409 W/m² -
1788549562 20.56° C 57% 1018.2 hPa 0 mm - 405 W/m² -
1788549259 20° C 55% 1018.2 hPa 0 mm - 396 W/m² -
1788548955 20.56° C 59% 1018.2 hPa 0 mm - 392 W/m² -
1788548650 18.89° C 62% 1018.2 hPa 0 mm - 377 W/m² -
1788548346 19.44° C 60% 1018.1 hPa 0 mm - 370 W/m² -
1788548042 18.89° C 61% 1018.1 hPa 0 mm - 364 W/m² -
1788547741 20° C 60% 1018.2 hPa 0 mm - 359 W/m² -
1788547436 18.89° C 63% 1018.3 hPa 0 mm - 349 W/m² -
1788547132 18.89° C 63% 1018.4 hPa 0 mm - 341 W/m² -
1788546827 18.89° C 64% 1018.3 hPa 0 mm - 333 W/m² -
1788546523 18.89° C 65% 1018.5 hPa 0 mm - 325 W/m² -
1788546217 19.44° C 66% 1018.5 hPa 0 mm - 317 W/m² -
1788545913 19.44° C 66% 1018.3 hPa 0 mm - 309 W/m² -
1788545612 19.44° C 65% 1018.4 hPa 0 mm - 304 W/m² -
1788545308 18.89° C 70% 1018.4 hPa 0 mm - 294 W/m² -
1788545003 18.33° C 68% 1018.5 hPa 0 mm - 284 W/m² -
1788544702 17.78° C 72% 1018.4 hPa 0 mm - 274 W/m² -
1788544401 16.67° C 80% 1018.4 hPa 0 mm - 271 W/m² -
1788544095 16.11° C 84% 1018.3 hPa 0 mm - 260 W/m² -
1788543791 15.56° C 88% 1018.4 hPa 0 mm - 254 W/m² -
1788543487 15° C 93% 1018.3 hPa 0 mm - 247 W/m² -

* Rain latest hour (hover to see other rain measurements)
** Current wind speed in m/s (hover to see current wind gust speed)